GW2484 Weather Reports


Display with metric or nautical units.
time (UTC)temp
F
wind
direction
speed
MPH
gust
MPH
rain 1hr
in
rain 24hr
in
rain mn
in
humidity
%
barometer
mb
20260901003513 94 205 0.0 2.0 0.00 0.00 0.00 40 1013.9
20260901003016 95 205 0.0 2.0 0.00 0.00 0.00 38 1014.0
20260901002519 95 205 1.0 3.0 0.00 0.00 0.00 37 1013.9
20260901002013 96 205 0.0 3.0 0.00 0.00 0.00 36 1013.9
20260901001514 96 212 1.0 3.0 0.00 0.00 0.00 36 1013.8
20260901001007 97 214 1.0 7.0 0.00 0.00 0.00 35 1013.9
20260901000514 97 222 1.0 7.0 0.00 0.00 0.00 34 1013.8
20260901000013 98 196 2.0 7.0 0.00 0.00 0.00 34 1013.8
20260831235503 98 234 1.0 6.0 0.00 0.00 0.00 34 1013.9
20260831235009 99 210 1.0 8.0 0.00 0.00 0.00 33 1013.8
20260831234531 99 241 4.0 8.0 0.00 0.00 0.00 32 1013.8
20260831234003 99 207 2.0 6.0 0.00 0.00 0.00 32 1013.8
20260831233508 100 194 2.0 9.0 0.00 0.00 0.00 1013.8
20260831233006 100 152 4.0 9.0 0.00 0.00 0.00 1013.8
20260831232511 100 184 4.0 12.0 0.00 0.00 0.00 32 1013.8
20260831232008 100 200 3.0 12.0 0.00 0.00 0.00 32 1013.7
20260831231504 101 198 3.0 7.0 0.00 0.00 0.00 1013.7
20260831231011 100 179 3.0 11.0 0.00 0.00 0.00 1013.7
20260831230505 100 191 6.0 11.0 0.00 0.00 0.00 32 1013.8
20260831230025 100 157 5.0 11.0 0.00 0.00 0.00 32 1013.8
20260831225512 101 216 5.0 11.0 0.00 0.00 0.00 31 1013.8
20260831225004 101 196 6.0 11.0 0.00 0.00 0.00 31 1013.8
20260831224527 101 216 4.0 10.0 0.00 0.00 0.00 31 1013.9
20260831224010 101 188 3.0 11.0 0.00 0.00 0.00 31 1013.9
20260831223516 101 185 6.0 12.0 0.00 0.00 0.00 31 1013.9
20260831223025 101 195 5.0 13.0 0.00 0.00 0.00 31 1013.9
20260831222508 101 205 5.0 14.0 0.00 0.00 0.00 30 1013.9
20260831222014 101 188 7.0 17.0 0.00 0.00 0.00 30 1014.0
20260831221533 101 233 6.0 17.0 0.00 0.00 0.00 30 1014.1
20260831221003 102 218 7.0 12.0 0.00 0.00 0.00 30 1014.1
20260831220515 102 243 2.0 12.0 0.00 0.00 0.00 31 1014.1
20260831220013 102 249 4.0 12.0 0.00 0.00 0.00 31 1014.1
20260831215503 102 224 6.0 11.0 0.00 0.00 0.00 30 1014.2
20260831215017 102 246 5.0 11.0 0.00 0.00 0.00 29 1014.2
20260831214514 102 257 2.0 10.0 0.00 0.00 0.00 29 1014.3
20260831214017 101 219 4.0 11.0 0.00 0.00 0.00 30 1014.3
20260831213512 101 270 6.0 12.0 0.00 0.00 0.00 30 1014.3
20260831213030 101 270 4.0 12.0 0.00 0.00 0.00 29 1014.3
20260831212516 102 196 3.0 13.0 0.00 0.00 0.00 30 1014.3
20260831212008 101 236 3.0 13.0 0.00 0.00 0.00 32 1014.4
20260831211505 102 279 6.0 13.0 0.00 0.00 0.00 30 1014.4
20260831211014 102 260 5.0 12.0 0.00 0.00 0.00 32 1014.4
20260831210508 101 279 5.0 12.0 0.00 0.00 0.00 29 1014.4
20260831210028 102 279 6.0 12.0 0.00 0.00 0.00 29 1014.5
20260831205513 102 209 6.0 11.0 0.00 0.00 0.00 30 1014.5
20260831205008 102 204 4.0 16.0 0.00 0.00 0.00 32 1014.6
20260831204526 101 235 11.0 16.0 0.00 0.00 0.00 30 1014.7
20260831204010 101 207 7.0 12.0 0.00 0.00 0.00 32 1014.9
20260831203503 101 205 7.0 13.0 0.00 0.00 0.00 31 1014.9
20260831203024 100 239 5.0 13.0 0.00 0.00 0.00 31 1015.0
20260831202510 100 223 4.0 12.0 0.00 0.00 0.00 32 1015.1
20260831202015 101 220 5.0 12.0 0.00 0.00 0.00 30 1015.1
20260831201520 102 249 6.0 12.0 0.00 0.00 0.00 29 1015.1
20260831201008 102 154 5.0 16.0 0.00 0.00 0.00 32 1015.1
20260831200514 101 241 7.0 16.0 0.00 0.00 0.00 32 1015.2
20260831200032 101 235 5.0 13.0 0.00 0.00 0.00 31 1015.2
20260831195507 101 202 7.0 15.0 0.00 0.00 0.00 31 1015.4
20260831195018 101 259 6.0 15.0 0.00 0.00 0.00 32 1015.4
20260831194514 102 235 5.0 10.0 0.00 0.00 0.00 32 1015.4
20260831194016 101 237 4.0 10.0 0.00 0.00 0.00 32 1015.4
20260831193514 101 279 5.0 16.0 0.00 0.00 0.00 31 1015.5
20260831193016 101 249 9.0 16.0 0.00 0.00 0.00 31 1015.6
20260831192514 101 262 6.0 16.0 0.00 0.00 0.00 31 1015.7
20260831192015 101 189 6.0 16.0 0.00 0.00 0.00 31 1015.7
20260831191510 100 237 5.0 15.0 0.00 0.00 0.00 31 1015.7
20260831191013 101 261 3.0 12.0 0.00 0.00 0.00 31 1015.8
20260831190511 101 200 6.0 16.0 0.00 0.00 0.00 30 1015.9
20260831190029 101 202 3.0 16.0 0.00 0.00 0.00 27 1015.9
20260831185512 101 191 4.0 13.0 0.00 0.00 0.00 30 1015.9
20260831185009 100 206 9.0 14.0 0.00 0.00 0.00 29 1016.0
20260831184529 100 260 6.0 14.0 0.00 0.00 0.00 28 1016.1
20260831184012 100 174 3.0 13.0 0.00 0.00 0.00 28 1016.1
20260831183523 100 197 7.0 14.0 0.00 0.00 0.00 27 1016.3
20260831183029 100 188 6.0 14.0 0.00 0.00 0.00 29 1016.2
20260831182510 100 204 6.0 14.0 0.00 0.00 0.00 30 1016.2
20260831182018 99 189 5.0 13.0 0.00 0.00 0.00 32 1016.3
20260831181504 98 142 2.0 11.0 0.00 0.00 0.00 36 1016.3
20260831181008 98 283 2.0 11.0 0.00 0.00 0.00 40 1016.4
20260831180507 98 179 5.0 9.0 0.00 0.00 0.00 40 1016.5
20260831180003 98 299 3.0 10.0 0.00 0.00 0.00 38 1016.5
20260831175508 97 162 2.0 10.0 0.00 0.00 0.00 37 1016.6
20260831175003 96 204 3.0 10.0 0.00 0.00 0.00 39 1016.7
20260831174522 98 190 4.0 10.0 0.00 0.00 0.00 38 1016.7
20260831174008 98 254 4.0 9.0 0.00 0.00 0.00 40 1016.7
20260831173504 97 239 0.0 9.0 0.00 0.00 0.00 40 1016.9
20260831173015 97 208 4.0 9.0 0.00 0.00 0.00 39 1017.1
20260831172515 97 179 2.0 13.0 0.00 0.00 0.00 41 1017.1
20260831172003 97 201 5.0 13.0 0.00 0.00 0.00 39 1017.2
20260831171511 96 189 3.0 9.0 0.00 0.00 0.00 42 1017.3
20260831171017 96 188 5.0 9.0 0.00 0.00 0.00 41 1017.4
20260831170512 97 221 4.0 10.0 0.00 0.00 0.00 42 1017.4
20260831170010 96 241 1.0 10.0 0.00 0.00 0.00 42 1017.4
20260831165502 96 186 5.0 9.0 0.00 0.00 0.00 42 1017.5
20260831165007 96 164 3.0 9.0 0.00 0.00 0.00 45 1017.5
20260831164511 95 223 4.0 9.0 0.00 0.00 0.00 43 1017.5
20260831164003 95 187 2.0 9.0 0.00 0.00 0.00 42 1017.4
20260831163511 95 235 2.0 9.0 0.00 0.00 0.00 46 1017.4
20260831163009 94 196 2.0 9.0 0.00 0.00 0.00 46 1017.5
20260831162515 94 216 4.0 7.0 0.00 0.00 0.00 47 1017.5
20260831162008 93 245 1.0 10.0 0.00 0.00 0.00 50 1017.6
20260831161504 93 179 2.0 10.0 0.00 0.00 0.00 47 1017.6
20260831161009 93 167 4.0 10.0 0.00 0.00 0.00 47 1017.6
20260831160505 93 202 2.0 9.0 0.00 0.00 0.00 49 1017.6
20260831160003 92 219 2.0 10.0 0.00 0.00 0.00 48 1017.6
20260831155511 91 187 3.0 10.0 0.00 0.00 0.00 48 1017.6
20260831155003 91 209 3.0 9.0 0.00 0.00 0.00 48 1017.5
20260831154544 91 189 2.0 9.0 0.00 0.00 0.00 49 1017.5
20260831154010 90 180 5.0 10.0 0.00 0.00 0.00 48 1017.6
20260831153503 91 210 5.0 10.0 0.00 0.00 0.00 50 1017.6
20260831153033 91 235 2.0 10.0 0.00 0.00 0.00 50 1017.4
20260831152511 90 188 5.0 10.0 0.00 0.00 0.00 49 1017.4
20260831152003 90 218 2.0 8.0 0.00 0.00 0.00 52 1017.4
20260831151516 89 239 3.0 9.0 0.00 0.00 0.00 51 1017.5
20260831151003 89 195 4.0 9.0 0.00 0.00 0.00 51 1017.4
20260831150515 89 212 2.0 8.0 0.00 0.00 0.00 53 1017.4
20260831150012 88 207 4.0 8.0 0.00 0.00 0.00 53 1017.3
20260831145503 87 206 4.0 8.0 0.00 0.00 0.00 54 1017.3
20260831145010 87 197 5.0 10.0 0.00 0.00 0.00 55 1017.4
20260831144514 86 196 5.0 10.0 0.00 0.00 0.00 55 1017.5
20260831144002 86 191 3.0 7.0 0.00 0.00 0.00 56 1017.5
20260831143510 85 260 3.0 7.0 0.00 0.00 0.00 57 1017.6
20260831143017 85 188 3.0 7.0 0.00 0.00 0.00 58 1017.6
20260831142512 84 198 2.0 8.0 0.00 0.00 0.00 59 1017.6
20260831142008 84 194 4.0 8.0 0.00 0.00 0.00 60 1017.6
20260831141505 83 247 4.0 8.0 0.00 0.00 0.00 59 1017.5
20260831141013 83 219 3.0 8.0 0.00 0.00 0.00 59 1017.4
20260831140507 83 207 3.0 8.0 0.00 0.00 0.00 59 1017.5
20260831140004 83 196 3.0 7.0 0.00 0.00 0.00 60 1017.6
20260831135510 82 174 1.0 3.0 0.00 0.00 0.00 61 1017.6
20260831135005 82 189 1.0 4.0 0.00 0.00 0.00 62 1017.6
20260831134527 81 173 1.0 4.0 0.00 0.00 0.00 62 1017.6
20260831134008 81 191 1.0 3.0 0.00 0.00 0.00 62 1017.6
20260831133509 80 196 1.0 3.0 0.00 0.00 0.00 64 1017.5
20260831133023 79 189 0.0 5.0 0.00 0.00 0.00 64 1017.5
20260831132509 79 194 2.0 5.0 0.00 0.00 0.00 66 1017.5
20260831132004 78 198 0.0 3.0 0.00 0.00 0.00 67 1017.4
20260831131520 77 167 0.0 3.0 0.00 0.00 0.00 68 1017.3
20260831131007 76 167 1.0 2.0 0.00 0.00 0.00 69 1017.2
20260831130514 75 215 0.0 2.0 0.00 0.00 0.00 71 1017.1
20260831130033 75 215 0.0 2.0 0.00 0.00 0.00 71 1017.0
20260831125506 74 241 1.0 2.0 0.00 0.00 0.00 71 1017.0
20260831125014 74 174 1.0 2.0 0.00 0.00 0.00 71 1016.8
20260831124531 74 174 0.0 2.0 0.00 0.00 0.00 71 1016.7
20260831124016 74 174 0.0 2.0 0.00 0.00 0.00 71 1016.6
20260831123515 74 174 0.0 2.0 0.00 0.00 0.00 70 1016.5
20260831123009 74 174 0.0 2.0 0.00 0.00 0.00 70 1016.5
20260831122518 74 174 0.0 2.0 0.00 0.00 0.00 70 1016.5
20260831122009 74 174 0.0 1.0 0.00 0.00 0.00 69 1016.4
20260831121525 74 174 0.0 1.0 0.00 0.00 0.00 69 1016.3
20260831121013 75 174 0.0 2.0 0.00 0.00 0.00 68 1016.3
20260831120511 75 174 1.0 2.0 0.00 0.00 0.00 68 1016.2
20260831120038 75 174 0.0 2.0 0.00 0.00 0.00 67 1016.1
20260831115512 75 174 0.0 3.0 0.00 0.00 0.00 67 1016.1
20260831115009 75 173 1.0 3.0 0.00 0.00 0.00 66 1016.0
20260831114534 75 174 2.0 3.0 0.00 0.00 0.00 66 1015.9
20260831114012 76 174 1.0 3.0 0.00 0.00 0.00 66 1015.8
20260831113508 76 174 0.0 4.0 0.00 0.00 0.00 66 1015.8
20260831113027 76 176 2.0 4.0 0.00 0.00 0.00 65 1015.8
20260831112510 76 182 1.0 4.0 0.00 0.00 0.00 65 1015.6
20260831112017 76 176 2.0 4.0 0.00 0.00 0.00 64 1015.6
20260831111526 76 178 1.0 6.0 0.00 0.00 0.00 64 1015.6
20260831111011 77 177 2.0 8.0 0.00 0.00 0.00 64 1015.5
20260831110518 77 174 3.0 8.0 0.00 0.00 0.00 64 1015.5
20260831110022 77 175 2.0 8.0 0.00 0.00 0.00 64 1015.4
20260831105508 77 206 2.0 8.0 0.00 0.00 0.00 63 1015.4
20260831105015 77 190 3.0 8.0 0.00 0.00 0.00 63 1015.4
20260831104556 77 173 3.0 7.0 0.00 0.00 0.00 63 1015.4
20260831104021 77 168 3.0 7.0 0.00 0.00 0.00 63 1015.4
20260831103521 77 165 1.0 7.0 0.00 0.00 0.00 62 1015.4
20260831103015 77 172 2.0 7.0 0.00 0.00 0.00 62 1015.3
20260831102516 77 167 3.0 7.0 0.00 0.00 0.00 62 1015.3
20260831102013 77 175 3.0 7.0 0.00 0.00 0.00 62 1015.3
20260831101511 78 179 3.0 9.0 0.00 0.00 0.00 62 1015.2
20260831101017 78 202 2.0 10.0 0.00 0.00 0.00 62 1015.2
20260831100516 78 190 3.0 10.0 0.00 0.00 0.00 62 1015.1
20260831100033 78 171 4.0 10.0 0.00 0.00 0.00 61 1015.1
20260831095515 78 196 4.0 9.0 0.00 0.00 0.00 61 1015.1
20260831095010 78 180 3.0 9.0 0.00 0.00 0.00 61 1015.1
20260831094533 78 167 3.0 9.0 0.00 0.00 0.00 61 1015.1
20260831094015 78 179 4.0 9.0 0.00 0.00 0.00 61 1015.0
20260831093513 78 203 2.0 9.0 0.00 0.00 0.00 61 1015.1
20260831093040 78 154 4.0 8.0 0.00 0.00 0.00 61 1015.1
20260831092515 78 160 2.0 8.0 0.00 0.00 0.00 60 1014.9
20260831092017 78 184 3.0 7.0 0.00 0.00 0.00 60 1014.8
20260831091508 78 188 2.0 8.0 0.00 0.00 0.00 60 1014.9
20260831091011 79 173 3.0 8.0 0.00 0.00 0.00 60 1014.9
20260831090506 79 209 2.0 7.0 0.00 0.00 0.00 60 1015.0
20260831090003 79 182 3.0 10.0 0.00 0.00 0.00 60 1014.9
20260831085508 79 173 3.0 10.0 0.00 0.00 0.00 59 1014.8
20260831085007 79 175 3.0 10.0 0.00 0.00 0.00 59 1014.7
20260831084502 79 167 3.0 7.0 0.00 0.00 0.00 59 1014.6
20260831084006 79 164 2.0 8.0 0.00 0.00 0.00 59 1014.7
20260831083502 79 177 4.0 8.0 0.00 0.00 0.00 59 1014.7
20260831083018 79 162 4.0 8.0 0.00 0.00 0.00 59 1014.6
20260831082505 79 172 2.0 9.0 0.00 0.00 0.00 59 1014.6
20260831082002 79 181 3.0 9.0 0.00 0.00 0.00 58 1014.6
20260831081515 80 163 3.0 8.0 0.00 0.00 0.00 58 1014.6
20260831081004 80 171 3.0 8.0 0.00 0.00 0.00 58 1014.6
20260831080503 80 176 3.0 11.0 0.00 0.00 0.00 57 1014.6
20260831080013 80 179 3.0 11.0 0.00 0.00 0.00 57 1014.7
20260831075502 80 176 4.0 8.0 0.00 0.00 0.00 57 1014.7
20260831075012 80 214 4.0 13.0 0.00 0.00 0.00 57 1014.7
20260831074512 80 183 3.0 13.0 0.00 0.00 0.00 57 1014.7
20260831074002 80 177 3.0 9.0 0.00 0.00 0.00 57 1014.7
20260831073512 80 162 4.0 9.0 0.00 0.00 0.00 56 1014.9
20260831073009 80 196 4.0 10.0 0.00 0.00 0.00 56 1014.9
20260831072514 80 196 4.0 10.0 0.00 0.00 0.00 56 1014.8
20260831072010 81 215 3.0 10.0 0.00 0.00 0.00 56 1014.7
20260831071524 81 173 4.0 10.0 0.00 0.00 0.00 56 1014.7
20260831071014 81 167 3.0 8.0 0.00 0.00 0.00 55 1014.6
20260831070506 81 176 2.0 12.0 0.00 0.00 0.00 55 1014.6
20260831070004 81 183 5.0 11.0 0.00 0.00 0.00 55 1014.6
20260831065508 82 170 4.0 10.0 0.00 0.00 0.00 54 1014.5
20260831065008 82 191 3.0 10.0 0.00 0.00 0.00 54 1014.6
20260831064528 82 171 6.0 13.0 0.00 0.00 0.00 54 1014.6
20260831064007 82 167 4.0 13.0 0.00 0.00 0.00 54 1014.6
20260831063503 82 164 3.0 11.0 0.00 0.00 0.00 53 1014.5
20260831063025 83 175 5.0 11.0 0.00 0.00 0.00 53 1014.5
20260831062509 83 166 5.0 10.0 0.00 0.00 0.00 52 1014.5
20260831062003 83 173 4.0 12.0 0.00 0.00 0.00 52 1014.6
20260831061519 83 214 4.0 14.0 0.00 0.00 0.00 52 1014.5
20260831061006 83 198 4.0 14.0 0.00 0.00 0.00 52 1014.5
20260831060515 83 179 8.0 14.0 0.00 0.00 0.00 52 1014.5
20260831060016 83 158 6.0 12.0 0.00 0.00 0.00 52 1014.5
20260831055505 83 191 6.0 10.0 0.00 0.00 0.00 51 1014.5
20260831055016 83 148 5.0 10.0 0.00 0.00 0.00 51 1014.4
20260831054515 83 173 3.0 8.0 0.00 0.00 0.00 51 1014.3
20260831054006 83 180 5.0 8.0 0.00 0.00 0.00 51 1014.2
20260831053514 83 167 3.0 9.0 0.00 0.00 0.00 50 1014.2
20260831053035 83 154 3.0 9.0 0.00 0.00 0.00 50 1014.2
20260831052513 83 183 2.0 6.0 0.00 0.00 0.00 50 1014.2
20260831052013 83 164 3.0 7.0 0.00 0.00 0.00 51 1014.2
20260831051508 83 194 3.0 7.0 0.00 0.00 0.00 51 1014.1
20260831051015 84 175 2.0 5.0 0.00 0.00 0.00 50 1014.1
20260831050517 84 169 2.0 5.0 0.00 0.00 0.00 50 1014.0
20260831050007 84 139 3.0 4.0 0.00 0.00 0.00 50 1014.0
20260831045512 85 181 1.0 3.0 0.00 0.00 0.00 49 1013.9
20260831045007 85 184 1.0 2.0 0.00 0.00 0.00 48 1013.8
20260831044531 85 183 1.0 6.0 0.00 0.00 0.00 48 1013.9
20260831044012 85 183 1.0 6.0 0.00 0.00 0.00 48 1013.8
20260831043506 85 161 1.0 4.0 0.00 0.00 0.00 48 1013.8
20260831043030 85 175 1.0 4.0 0.00 0.00 0.00 48 1013.8
20260831042511 85 197 1.0 4.0 0.00 0.00 0.00 48 1013.8
20260831042004 85 206 1.0 3.0 0.00 0.00 0.00 47 1013.7
20260831041524 85 206 0.0 3.0 0.00 0.00 0.00 47 1013.7
20260831041014 85 200 1.0 3.0 0.00 0.00 0.00 47 1013.7
20260831040515 86 169 2.0 3.0 0.00 0.00 0.00 46 1013.7
20260831040024 86 178 0.0 2.0 0.00 0.00 0.00 46 1013.7
20260831035507 86 177 0.0 3.0 0.00 0.00 0.00 46 1013.6
20260831035015 86 177 1.0 3.0 0.00 0.00 0.00 45 1013.7
20260831034519 86 173 1.0 3.0 0.00 0.00 0.00 45 1013.7
20260831034006 86 173 1.0 4.0 0.00 0.00 0.00 45 1013.7
20260831033513 86 171 2.0 4.0 0.00 0.00 0.00 45 1013.7
20260831033014 86 176 1.0 4.0 0.00 0.00 0.00 45 1013.6
20260831032519 86 175 2.0 4.0 0.00 0.00 0.00 45 1013.6
20260831032013 86 171 2.0 4.0 0.00 0.00 0.00 45 1013.6
20260831031517 86 172 2.0 4.0 0.00 0.00 0.00 45 1013.6
20260831031015 86 179 2.0 4.0 0.00 0.00 0.00 45 1013.5
20260831030517 87 169 1.0 3.0 0.00 0.00 0.00 45 1013.4
20260831030008 87 177 0.0 6.0 0.00 0.00 0.00 44 1013.4
20260831025517 87 175 1.0 6.0 0.00 0.00 0.00 44 1013.4
20260831025010 87 173 2.0 4.0 0.00 0.00 0.00 45 1013.4
20260831024531 87 168 3.0 4.0 0.00 0.00 0.00 44 1013.3
20260831024014 88 169 2.0 3.0 0.00 0.00 0.00 44 1013.2
20260831023511 88 171 0.0 3.0 0.00 0.00 0.00 43 1013.2
20260831023029 88 169 1.0 4.0 0.00 0.00 0.00 43 1013.2
20260831022511 88 169 2.0 4.0 0.00 0.00 0.00 42 1013.1
20260831022007 89 169 2.0 3.0 0.00 0.00 0.00 42 1012.9
20260831021527 89 172 2.0 4.0 0.00 0.00 0.00 42 1012.9
20260831021011 89 171 2.0 5.0 0.00 0.00 0.00 41 1012.9
20260831020516 89 173 2.0 6.0 0.00 0.00 0.00 41 1012.8
20260831020024 89 169 3.0 6.0 0.00 0.00 0.00 41 1012.7
20260831015517 90 166 2.0 5.0 0.00 0.00 0.00 41 1012.6
20260831015016 90 169 2.0 7.0 0.00 0.00 0.00 40 1012.5
20260831014533 90 181 3.0 7.0 0.00 0.00 0.00 40 1012.5
20260831014006 90 171 3.0 6.0 0.00 0.00 0.00 40 1012.5
20260831013517 91 181 3.0 6.0 0.00 0.00 0.00 40 1012.4
20260831013020 91 177 2.0 5.0 0.00 0.00 0.00 39 1012.4
20260831012517 91 174 2.0 4.0 0.00 0.00 0.00 39 1012.4
20260831012013 92 173 2.0 4.0 0.00 0.00 0.00 39 1012.4
20260831011516 92 171 2.0 4.0 0.00 0.00 0.00 38 1012.3
20260831011003 93 177 1.0 4.0 0.00 0.00 0.00 38 1012.3
20260831010508 93 177 1.0 4.0 0.00 0.00 0.00 37 1012.3
20260831010009 93 172 1.0 9.0 0.00 0.00 0.00 37 1012.3
20260831005505 94 180 1.0 9.0 0.00 0.00 0.00 36 1012.3
20260831005008 94 181 2.0 3.0 0.00 0.00 0.00 36 1012.3
20260831004508 95 191 1.0 8.0 0.00 0.00 0.00 37 1012.3
20260831004008 95 178 1.0 8.0 0.00 0.00 0.00 35 1012.3